FW1417 Weather Reports


Display with metric or nautical units.
time (UTC)temp
F
wind
direction
speed
MPH
gust
MPH
rain 1hr
in
rain 24hr
in
rain mn
in
humidity
%
barometer
mb
20260506131705 69 144 6.0 12.0 0.00 0.00 0.00 64 1006.1
20260506130705 69 134 3.0 10.0 0.00 0.00 0.00 64 1005.9
20260506130205 69 178 5.0 12.0 0.00 0.00 0.00 65 1005.9
20260506125705 68 161 5.0 12.0 0.00 0.00 0.00 65 1005.9
20260506125205 68 142 5.0 12.0 0.00 0.00 0.00 66 1005.9
20260506124705 68 145 5.0 12.0 0.00 0.00 0.00 67 1005.9
20260506124205 67 153 4.0 12.0 0.00 0.00 0.00 67 1005.9
20260506123207 67 172 2.0 12.0 0.00 0.00 0.00 68 1006.1
20260506122705 67 167 2.0 13.0 0.00 0.00 0.00 68 1006.1
20260506122205 66 82 5.0 13.0 0.00 0.00 0.00 69 1006.1
20260506121705 66 168 4.0 9.0 0.00 0.00 0.00 69 1006.2
20260506121205 66 92 2.0 13.0 0.00 0.00 0.00 69 1006.4
20260506120205 66 146 2.0 12.0 0.00 0.00 0.00 71 1006.4
20260506115705 66 88 6.0 12.0 0.00 0.00 0.00 71 1006.5
20260506115205 65 141 2.0 10.0 0.00 0.00 0.00 71 1006.4
20260506114705 65 179 3.0 10.0 0.00 0.00 0.00 72 1006.5
20260506114205 65 109 3.0 12.0 0.00 0.00 0.00 72 1006.5
20260506113705 65 130 3.0 12.0 0.00 0.00 0.00 72 1006.5
20260506112705 64 146 3.0 8.0 0.00 0.00 0.00 73 1006.6
20260506112205 64 106 3.0 8.0 0.00 0.00 0.00 74 1006.6
20260506111205 64 168 5.0 9.0 0.00 0.00 0.00 74 1006.4
20260506110705 64 138 5.0 10.0 0.00 0.00 0.00 74 1006.4
20260506110205 64 139 4.0 10.0 0.00 0.00 0.00 75 1006.3
20260506105705 64 133 5.0 10.0 0.00 0.00 0.00 75 1006.3
20260506105204 64 132 2.0 8.0 0.00 0.00 0.00 75 1006.3
20260506104206 63 152 3.0 8.0 0.00 0.00 0.00 75 1006.5
20260506103706 63 134 3.0 9.0 0.00 0.00 0.00 76 1006.4
20260506103205 63 135 4.0 9.0 0.00 0.00 0.00 76 1006.3
20260506102205 63 158 4.0 9.0 0.00 0.00 0.00 76 1006.3
20260506101705 63 144 5.0 10.0 0.00 0.00 0.00 76 1006.3
20260506101205 63 138 5.0 12.0 0.00 0.00 0.00 76 1006.2
20260506100704 63 132 3.0 12.0 0.00 0.00 0.00 76 1006.2
20260506095204 63 151 3.0 10.0 0.00 0.00 0.00 76 1006.2
20260506094704 63 159 6.0 12.0 0.00 0.00 0.00 75 1006.2
20260506094204 63 154 5.0 12.0 0.00 0.00 0.00 76 1006.2
20260506093705 63 142 5.0 12.0 0.00 0.00 0.00 76 1006.2
20260506093205 63 153 4.0 10.0 0.00 0.00 0.00 76 1006.1
20260506092705 63 139 5.0 12.0 0.00 0.00 0.00 76 1006.2
20260506092205 63 150 5.0 12.0 0.00 0.00 0.00 75 1006.2
20260506091705 64 147 6.0 12.0 0.00 0.00 0.00 75 1006.2
20260506091205 64 96 5.0 10.0 0.00 0.00 0.00 75 1006.2
20260506090705 64 143 3.0 10.0 0.00 0.00 0.00 75 1006.3
20260506090204 64 147 5.0 10.0 0.00 0.00 0.00 75 1006.3
20260506085705 64 148 3.0 12.0 0.00 0.00 0.00 75 1006.3
20260506085205 64 145 5.0 12.0 0.00 0.00 0.00 75 1006.4
20260506084705 64 136 5.0 12.0 0.00 0.00 0.00 75 1006.4
20260506084205 64 125 6.0 12.0 0.00 0.00 0.00 75 1006.4
20260506083705 64 148 6.0 12.0 0.00 0.00 0.00 75 1006.4
20260506083205 64 148 6.0 12.0 0.00 0.00 0.00 75 1006.3
20260506082704 64 162 6.0 12.0 0.00 0.00 0.00 75 1006.4
20260506082205 64 146 5.0 12.0 0.00 0.00 0.00 75 1006.5
20260506081704 64 119 6.0 12.0 0.00 0.00 0.00 75 1006.5
20260506081204 64 141 4.0 12.0 0.00 0.00 0.00 74 1006.5
20260506080704 64 130 6.0 12.0 0.00 0.00 0.00 74 1006.5
20260506080205 64 139 5.0 12.0 0.00 0.00 0.00 74 1006.5
20260506073204 65 146 7.0 13.0 0.00 0.00 0.00 72 1006.6
20260506072705 65 169 6.0 13.0 0.00 0.00 0.00 71 1006.5
20260506072205 65 146 7.0 12.0 0.00 0.00 0.00 71 1006.6
20260506071205 65 144 7.0 13.0 0.00 0.00 0.00 70 1006.7
20260506070705 65 121 6.0 13.0 0.00 0.00 0.00 70 1006.8
20260506070205 65 142 5.0 10.0 0.00 0.00 0.00 70 1006.7
20260506062205 67 172 3.0 9.0 0.00 0.00 0.00 67 1006.7
20260506061706 67 152 3.0 12.0 0.00 0.00 0.00 67 1006.7
20260506060704 67 136 5.0 10.0 0.00 0.00 0.00 66 1006.8
20260506060204 67 148 6.0 10.0 0.00 0.00 0.00 66 1006.8
20260506051204 67 176 3.0 8.0 0.00 0.00 0.00 64 1007.3
20260506050704 67 145 2.0 6.0 0.00 0.00 0.00 64 1007.3
20260506050204 67 144 3.0 8.0 0.00 0.00 0.00 64 1007.3
20260506044707 68 144 4.0 8.0 0.00 0.00 0.00 62 1007.3
20260506044206 68 137 2.0 7.0 0.00 0.00 0.00 62 1007.4
20260506043707 68 144 2.0 9.0 0.00 0.00 0.00 61 1007.3
20260506043206 69 86 3.0 9.0 0.00 0.00 0.00 61 1007.3
20260506042706 69 152 3.0 9.0 0.00 0.00 0.00 60 1007.3
20260506042206 69 168 4.0 10.0 0.00 0.00 0.00 60 1007.2
20260506041708 69 175 3.0 10.0 0.00 0.00 0.00 59 1007.3
20260506040709 69 178 3.0 10.0 0.00 0.00 0.00 58 1007.1
20260506040206 70 144 5.0 10.0 0.00 0.00 0.00 58 1007.2
20260506035707 70 156 3.0 12.0 0.00 0.00 0.00 58 1007.1
20260506035206 70 215 5.0 12.0 0.00 0.00 0.00 57 1007.1
20260506034706 70 180 6.0 12.0 0.00 0.00 0.00 57 1007.2
20260506034206 70 175 5.0 12.0 0.00 0.00 0.00 57 1007.2
20260506033707 70 169 6.0 14.0 0.00 0.00 0.00 57 1007.2
20260506033207 69 10 7.0 14.0 0.00 0.00 0.00 57 1007.1
20260506032706 69 155 6.0 12.0 0.00 0.00 0.00 57 1007.1
20260506031706 69 165 3.0 9.0 0.00 0.00 0.00 58 1007.0
20260506031207 69 157 2.0 6.0 0.00 0.00 0.00 58 1006.9
20260506030706 69 169 4.0 7.0 0.00 0.00 0.00 58 1006.9
20260506030206 69 156 2.0 7.0 0.00 0.00 0.00 58 1006.8
20260506025706 69 139 3.0 7.0 0.00 0.00 0.00 58 1006.9
20260506025207 69 152 3.0 9.0 0.00 0.00 0.00 58 1007.0
20260506024206 69 145 4.0 9.0 0.00 0.00 0.00 58 1007.1
20260506023706 69 127 3.0 9.0 0.00 0.00 0.00 57 1007.0
20260506023207 69 163 5.0 9.0 0.00 0.00 0.00 57 1007.0
20260506022706 69 145 3.0 12.0 0.00 0.00 0.00 57 1007.1
20260506022206 69 146 5.0 12.0 0.00 0.00 0.00 57 1007.0
20260506021706 70 156 3.0 12.0 0.00 0.00 0.00 57 1006.9
20260506021207 70 146 5.0 15.0 0.00 0.00 0.00 56 1006.9
20260506020706 70 175 5.0 15.0 0.00 0.00 0.00 56 1007.0
20260506015707 70 123 5.0 14.0 0.00 0.00 0.00 56 1006.9
20260506014707 70 148 5.0 13.0 0.00 0.00 0.00 55 1006.8
20260506014207 70 142 6.0 13.0 0.00 0.00 0.00 55 1006.8
20260506013706 71 148 4.0 12.0 0.00 0.00 0.00 54 1006.7
20260506013206 71 128 5.0 10.0 0.00 0.00 0.00 54 1006.7
20260506012707 71 145 4.0 12.0 0.00 0.00 0.00 53 1006.7
20260506012206 71 144 5.0 12.0 0.00 0.00 0.00 53 1006.6
20260506011706 71 153 6.0 12.0 0.00 0.00 0.00 53 1006.5
20260506011206 71 145 6.0 15.0 0.00 0.00 0.00 53 1006.5
20260506010706 71 143 6.0 15.0 0.00 0.00 0.00 52 1006.4
20260506010206 71 152 5.0 16.0 0.00 0.00 0.00 52 1006.3
20260506005706 71 119 6.0 16.0 0.00 0.00 0.00 52 1006.2
20260506005206 71 146 6.0 17.0 0.00 0.00 0.00 52 1006.1
20260506004206 72 145 9.0 15.0 0.00 0.00 0.00 50 1006.1
20260506003706 73 150 6.0 15.0 0.00 0.00 0.00 49 1006.0
20260506003207 74 141 7.0 15.0 0.00 0.00 0.00 46 1006.0
20260506002706 75 140 7.0 13.0 0.00 0.00 0.00 44 1005.9
20260506001706 75 145 3.0 12.0 0.00 0.00 0.00 42 1005.6
20260506001206 75 138 4.0 12.0 0.00 0.00 0.00 42 1005.7
20260506000706 75 152 5.0 12.0 0.00 0.00 0.00 42 1005.6
20260506000206 75 169 4.0 10.0 0.00 0.00 0.00 43 1005.6
20260505234706 75 161 3.0 10.0 0.00 0.00 0.00 43 1005.3
20260505234207 75 141 5.0 12.0 0.00 0.00 0.00 43 1005.2
20260505233706 76 150 6.0 12.0 0.00 0.00 0.00 43 1005.1
20260505233206 77 143 7.0 13.0 0.00 0.00 0.00 41 1005.2
20260505232706 78 148 6.0 13.0 0.00 0.00 0.00 39 1005.0
20260505232205 79 134 5.0 13.0 0.00 0.00 0.00 38 1004.8
20260505231706 80 157 3.0 10.0 0.00 0.00 0.00 36 1004.7
20260505231207 81 143 5.0 18.0 0.00 0.00 0.00 34 1004.6
20260505230706 82 192 5.0 20.0 0.00 0.00 0.00 27 1004.6
20260505230206 82 193 8.0 20.0 0.00 0.00 0.00 26 1004.4
20260505225706 82 182 8.0 21.0 0.00 0.00 0.00 26 1004.5
20260505225206 82 185 10.0 21.0 0.00 0.00 0.00 26 1004.4
20260505224707 82 192 12.0 21.0 0.00 0.00 0.00 25 1004.4
20260505224206 83 170 6.0 17.0 0.00 0.00 0.00 25 1004.3
20260505223206 83 215 11.0 20.0 0.00 0.00 0.00 25 1004.4
20260505222706 83 204 6.0 18.0 0.00 0.00 0.00 25 1004.3
20260505222206 83 232 8.0 18.0 0.00 0.00 0.00 26 1004.3
20260505221205 83 209 6.0 17.0 0.00 0.00 0.00 29 1004.2
20260505220706 83 177 8.0 17.0 0.00 0.00 0.00 30 1004.1
20260505220206 84 180 7.0 17.0 0.00 0.00 0.00 30 1004.0
20260505215706 84 149 9.0 17.0 0.00 0.00 0.00 30 1003.9
20260505214706 84 205 10.0 21.0 0.00 0.00 0.00 28 1003.9
20260505214205 84 208 10.0 21.0 0.00 0.00 0.00 27 1003.8
20260505213707 84 210 6.0 21.0 0.00 0.00 0.00 28 1003.9
20260505213205 84 178 9.0 21.0 0.00 0.00 0.00 28 1003.7
20260505212706 84 172 9.0 23.0 0.00 0.00 0.00 28 1003.7
20260505212205 84 176 9.0 23.0 0.00 0.00 0.00 28 1003.6
20260505210705 84 185 6.0 24.0 0.00 0.00 0.00 27 1003.6
20260505210206 85 213 8.0 26.0 0.00 0.00 0.00 27 1003.6
20260505205206 85 229 6.0 21.0 0.00 0.00 0.00 25 1003.6
20260505204705 85 193 10.0 21.0 0.00 0.00 0.00 25 1003.6
20260505203206 85 194 9.0 23.0 0.00 0.00 0.00 26 1003.8
20260505202705 85 177 4.0 20.0 0.00 0.00 0.00 26 1003.8
20260505202206 85 184 6.0 17.0 0.00 0.00 0.00 27 1003.7
20260505201706 85 179 9.0 20.0 0.00 0.00 0.00 27 1003.8
20260505201205 85 145 7.0 20.0 0.00 0.00 0.00 26 1003.9
20260505200706 85 157 10.0 20.0 0.00 0.00 0.00 26 1004.0
20260505200206 82 191 6.0 20.0 0.00 0.00 0.00 31 1004.1
20260505194706 81 140 5.0 12.0 0.00 0.00 0.00 34 1004.2
20260505194206 81 151 5.0 12.0 0.00 0.00 0.00 36 1004.3
20260505193707 80 145 5.0 12.0 0.00 0.00 0.00 37 1004.3
20260505193258 80 152 6.0 10.0 0.00 0.00 0.00 37 1004.5
20260505190706 81 138 5.0 12.0 0.00 0.00 0.00 38 1005.0
20260505190206 81 240 3.0 12.0 0.00 0.00 0.00 38 1005.1
20260505185706 80 152 4.0 12.0 0.00 0.00 0.00 39 1005.2
20260505185205 81 145 5.0 12.0 0.00 0.00 0.00 38 1005.3
20260505184706 80 137 5.0 12.0 0.00 0.00 0.00 39 1005.3
20260505184206 80 160 6.0 12.0 0.00 0.00 0.00 39 1005.4
20260505183706 80 144 7.0 13.0 0.00 0.00 0.00 39 1005.4
20260505183206 80 134 7.0 13.0 0.00 0.00 0.00 38 1005.5
20260505182705 80 135 5.0 12.0 0.00 0.00 0.00 39 1005.5
20260505182205 80 161 5.0 12.0 0.00 0.00 0.00 39 1005.5
20260505181706 80 138 5.0 12.0 0.00 0.00 0.00 39 1005.6
20260505181205 80 156 5.0 12.0 0.00 0.00 0.00 39 1005.4
20260505180206 80 121 6.0 17.0 0.00 0.00 0.00 39 1005.7
20260505175705 81 150 6.0 17.0 0.00 0.00 0.00 38 1005.7
20260505175206 81 162 6.0 12.0 0.00 0.00 0.00 39 1005.8
20260505174705 81 134 4.0 10.0 0.00 0.00 0.00 38 1005.9
20260505174206 80 171 5.0 12.0 0.00 0.00 0.00 39 1005.8
20260505173705 79 139 6.0 13.0 0.00 0.00 0.00 40 1005.8
20260505173206 79 154 6.0 13.0 0.00 0.00 0.00 40 1006.0
20260505172706 79 156 6.0 13.0 0.00 0.00 0.00 40 1006.0
20260505172205 79 133 6.0 12.0 0.00 0.00 0.00 40 1006.0
20260505171706 79 159 5.0 12.0 0.00 0.00 0.00 40 1006.1
20260505171205 79 143 6.0 12.0 0.00 0.00 0.00 41 1006.0
20260505170706 78 151 7.0 15.0 0.00 0.00 0.00 40 1006.0
20260505170206 78 137 7.0 15.0 0.00 0.00 0.00 41 1006.1
20260505165705 78 138 6.0 15.0 0.00 0.00 0.00 41 1006.2
20260505165205 78 149 5.0 13.0 0.00 0.00 0.00 41 1006.3
20260505164705 78 124 6.0 13.0 0.00 0.00 0.00 41 1006.4
20260505164205 78 165 2.0 12.0 0.00 0.00 0.00 41 1006.4
20260505163205 77 156 4.0 10.0 0.00 0.00 0.00 42 1006.6
20260505162705 77 141 5.0 12.0 0.00 0.00 0.00 43 1006.6
20260505162205 77 147 6.0 13.0 0.00 0.00 0.00 42 1006.7
20260505161705 77 178 6.0 13.0 0.00 0.00 0.00 43 1006.8
20260505161205 77 150 6.0 13.0 0.00 0.00 0.00 42 1006.8
20260505160706 79 147 6.0 13.0 0.00 0.00 0.00 41 1006.9
20260505152706 77 123 3.0 9.0 0.00 0.00 0.00 44 1007.0
20260505152205 76 147 2.0 9.0 0.00 0.00 0.00 45 1007.1
20260505151706 76 144 5.0 9.0 0.00 0.00 0.00 46 1007.1
20260505151205 75 127 4.0 9.0 0.00 0.00 0.00 46 1007.2
20260505150706 75 137 5.0 9.0 0.00 0.00 0.00 46 1007.2
20260505150205 75 141 3.0 9.0 0.00 0.00 0.00 47 1007.3
20260505140205 71 157 5.0 12.0 0.00 0.00 0.00 52 1007.9